N7QNM-13 Weather Reports


time (UTC)temp
F
wind
direction
speed
knots
gust
knots
rain 1hr
in
rain 24hr
in
rain mn
in
humidity
%
barometer
mb
20260502234047 83 63 4.3 12.2 0.00 0.00 0.00 33 1010.1
20260502233048 84 52 6.1 12.2 0.00 0.00 0.00 32 1010.2
20260502232048 84 42 3.5 7.8 0.00 0.00 0.00 33 1010.2
20260502231048 84 43 6.1 13.0 0.00 0.00 0.00 33 1010.3
20260502230048 85 17 2.6 7.0 0.00 0.00 0.00 33 1010.4
20260502225048 85 19 3.5 9.6 0.00 0.00 0.00 33 1010.5
20260502224108 84 30 2.6 11.3 0.00 0.00 0.00 34 1010.8
20260502223048 84 57 5.2 11.3 0.00 0.00 0.00 35 1010.9
20260502222050 84 62 6.1 13.0 0.00 0.00 0.00 35 1011.0
20260502221048 84 347 2.6 6.1 0.00 0.00 0.00 35 1011.2
20260502220049 83 36 2.6 12.2 0.00 0.00 0.00 35 1011.2
20260502215049 82 17 2.6 8.7 0.00 0.00 0.00 36 1011.3
20260502214109 82 48 4.3 8.7 0.00 0.00 0.00 37 1011.4
20260502213049 82 47 4.3 10.4 0.00 0.00 0.00 37 1011.6
20260502212050 82 48 6.1 13.0 0.00 0.00 0.00 38 1011.6
20260502211049 81 41 3.5 13.9 0.00 0.00 0.00 37 1011.7
20260502210050 81 44 4.3 12.2 0.00 0.00 0.00 36 1011.9
20260502205050 81 47 4.3 14.8 0.00 0.00 0.00 37 1012.0
20260502204050 80 4 3.5 11.3 0.00 0.00 0.00 37 1012.1
20260502203050 81 26 1.7 6.1 0.00 0.00 0.00 37 1012.2
20260502202050 81 17 2.6 8.7 0.00 0.00 0.00 37 1012.3
20260502201050 81 51 4.3 11.3 0.00 0.00 0.00 37 1012.4
20260502200050 81 46 4.3 8.7 0.00 0.00 0.00 37 1012.4
20260502195050 81 40 1.7 8.7 0.00 0.00 0.00 36 1012.5
20260502194050 80 32 1.7 7.8 0.00 0.00 0.00 37 1012.7
20260502193050 79 293 6.1 14.8 0.00 0.00 0.00 40 1012.7
20260502192050 79 276 6.1 11.3 0.00 0.00 0.00 40 1012.9
20260502191111 78 282 2.6 8.7 0.00 0.00 0.00 40 1013.0
20260502190111 78 267 6.1 11.3 0.00 0.00 0.00 40 1013.1
20260502185051 77 283 7.0 9.6 0.00 0.00 0.00 42 1013.2
20260502184052 77 268 6.1 9.6 0.00 0.00 0.00 42 1013.1
20260502183111 78 298 7.0 11.3 0.00 0.00 0.00 41 1013.1
20260502182052 78 44 0.9 6.1 0.00 0.00 0.00 39 1013.2
20260502181111 78 290 0.9 4.3 0.00 0.00 0.00 39 1013.2
20260502164112 72 285 6.1 7.8 0.00 0.00 0.00 47 1013.4
20260502163053 71 285 6.1 8.7 0.00 0.00 0.00 48 1013.4
20260502162053 70 266 6.1 9.6 0.00 0.00 0.00 48 1013.4
20260502161053 69 261 6.1 7.8 0.00 0.00 0.00 50 1013.4
20260502152114 66 0.0 0.0 0.00 0.00 0.00 61 1013.5
20260502151055 63 251 0.0 2.6 0.00 0.00 0.00 63 1013.4
20260502130116 53 322 0.0 0.9 0.00 0.00 0.00 80 1012.8
20260502123056 53 306 0.0 1.7 0.00 0.00 0.00 78 1012.6
20260502122057 53 35 0.0 1.7 0.00 0.00 0.00 78 1012.6
20260502121057 53 293 0.0 0.0 0.00 0.00 0.00 78 1012.6
20260502115056 53 53 0.0 2.6 0.00 0.00 0.00 77 1012.6
20260502114057 53 38 0.9 2.6 0.00 0.00 0.00 76 1012.6
20260502113057 54 46 0.9 3.5 0.00 0.00 0.00 75 1012.5
20260502112057 54 327 0.0 0.0 0.00 0.00 0.00 74 1012.5
20260502111057 55 271 0.0 1.7 0.00 0.00 0.00 73 1012.3
20260502110117 55 143 0.0 0.0 0.00 0.00 0.00 71 1012.4
20260502105118 55 244 0.9 3.5 0.00 0.00 0.00 72 1012.4
20260502104058 55 260 0.0 0.0 0.00 0.00 0.00 73 1012.4
20260502103059 54 38 0.9 2.6 0.00 0.00 0.00 73 1012.4
20260502102058 54 276 0.9 2.6 0.00 0.00 0.00 74 1012.4
20260502101058 54 306 0.0 1.7 0.00 0.00 0.00 73 1012.4
20260502091059 53 59 0.9 5.2 0.00 0.00 0.00 73 1012.7
20260502090119 54 265 3.5 5.2 0.00 0.00 0.00 71 1012.7
20260502071100 55 311 0.0 1.7 0.00 0.00 0.00 66 1012.5
20260502070100 56 0.0 0.0 0.00 0.00 0.00 65 1012.5
20260502065100 56 27 0.0 0.9 0.00 0.00 0.00 65 1012.5
20260502064120 57 248 0.0 1.7 0.00 0.00 0.00 64 1012.5
20260502063100 57 255 0.9 2.6 0.00 0.00 0.00 63 1012.5
20260502062101 57 263 0.0 2.6 0.00 0.00 0.00 64 1012.4
20260502061121 58 251 1.7 2.6 0.00 0.00 0.00 64 1012.4
20260502060101 58 297 0.0 1.7 0.00 0.00 0.00 63 1012.3
20260502055101 58 244 0.0 1.7 0.00 0.00 0.00 62 1012.4
20260502054101 59 265 0.0 1.7 0.00 0.00 0.00 61 1012.4
20260502053141 59 262 0.9 2.6 0.00 0.00 0.00 60 1012.4
20260502052101 59 265 1.7 3.5 0.00 0.00 0.00 60 1012.4
20260502051101 59 239 2.6 4.3 0.00 0.00 0.00 61 1012.4
20260502045101 59 0.0 0.0 0.00 0.00 0.00 59 1012.0
20260502044142 60 261 0.0 1.7 0.00 0.00 0.00 58 1012.0
20260502043101 62 255 0.0 1.7 0.00 0.00 0.00 55 1012.0
20260502042102 63 288 0.0 0.0 0.00 0.00 0.00 53 1011.9
20260502041102 64 242 0.0 1.7 0.00 0.00 0.00 51 1011.8
20260502035103 66 0.0 0.0 0.00 0.00 0.00 48 1011.7
20260502034102 67 11 0.0 0.9 0.00 0.00 0.00 48 1011.7
20260502033102 68 0.0 0.0 0.00 0.00 0.00 44 1011.5
20260502032102 69 204 0.0 0.9 0.00 0.00 0.00 44 1011.5
20260502031102 71 311 0.0 1.7 0.00 0.00 0.00 43 1011.4
20260502030603 72 267 0.0 0.9 0.00 0.00 0.00 42 1011.3
20260502025603 73 0.0 0.0 0.00 0.00 0.00 41 1011.3
20260502025103 74 0.0 0.0 0.00 0.00 0.00 40 1011.4
20260502024103 75 0.0 0.0 0.00 0.00 0.00 40 1011.4
20260502023103 76 69 0.0 3.5 0.00 0.00 0.00 40 1011.3
20260502022123 76 55 1.7 4.3 0.00 0.00 0.00 40 1011.3
20260502021103 76 53 4.3 6.1 0.00 0.00 0.00 40 1011.3
20260502020104 76 58 4.3 5.2 0.00 0.00 0.00 39 1011.3
20260502015104 77 58 4.3 9.6 0.00 0.00 0.00 38 1011.3
20260502014104 77 58 6.1 8.7 0.00 0.00 0.00 37 1011.4
20260502013104 77 55 7.0 11.3 0.00 0.00 0.00 37 1011.5
20260502012104 77 61 6.1 12.2 0.00 0.00 0.00 38 1011.5
20260502011104 77 62 7.0 10.4 0.00 0.00 0.00 37 1011.7
20260502010104 77 61 7.8 13.0 0.00 0.00 0.00 37 1011.7
20260502005104 77 56 7.0 13.0 0.00 0.00 0.00 38 1011.8
20260502004105 77 55 6.1 9.6 0.00 0.00 0.00 37 1011.9
20260502003104 77 56 6.1 9.6 0.00 0.00 0.00 38 1011.9
20260502002109 78 56 6.1 10.4 0.00 0.00 0.00 37 1011.9
20260502001105 78 60 5.2 7.8 0.00 0.00 0.00 36 1012.0
20260501234605 78 56 5.2 8.7 0.00 0.00 0.00 36 1012.2